SCP
0 0 0 0 0 0 0 0 0 0 0 0 0 0 0 0 0 -0 0 0 -0 -0 -0 -0 -0 -0 -0 -0 -0 -0 -0 -0 -0 -0 -0 0 0 0 0 0 0 0 -0 -0 -0 -0 -0 -0 0
0 0 0 0 0 0 -0 0 0 0 0 0 0 0 0 0 0 0 0 -0 -0 -0 -0 -0 -0 -0 -0 -0 -0 -0 -0 -0 -0 0 0 0 0 0 0 0 0 0 0 0 0 0 -0 -0 -0
0 0 0 0 0 0 0 0 0 0 0 0 0 0 0 0 0 0 -0 -0 -0 -0 0 0 -0 -0 -0 -0 -0 0 0 0 0 0 0 0 0 0 0 0 0 0 0 0 0 0 0 -0 0
0 0 0 0 0 0 0 0 0 0 0 0 0 0 0 0 0 0 0 0 0 0 0 0 0 0 0 0 0 0 0 0 0 0 0 0 0 0 0 1 1 0 0 0 0 0 0 0 0
0 0 -0 0 0 0 0 0 0 0 0 0 0 0 0 0 -0 0 0 0 0 0 0 0 0 0 0 0 0 0 0 0 0 0 0 0 0 0 0 1 1 1 0 0 0 0 0 0 0
0 0 -0 -0 -0 0 0 0 0 0 0 0 0 0 0 0 0 0 0 0 0 0 0 0 0 0 0 0 0 0 0 0 0 0 0 0 0 0 0 1 0 0 0 0 0 0 0 0 0
0 -0 -0 -0 0 0 -0 0 0 0 0 0 0 0 0 0 0 0 0 0 0 0 0 0 0 0 0 -0 -0 -0 -0 0 0 0 0 0 0 0 1 1 0 0 0 0 0 0 0 0 0
0 0 -0 0 -0 0 -0 0 0 0 -0 0 0 0 0 0 0 0 0 0 0 0 0 0 0 0 0 0 0 -0 -0 -0 0 0 0 0 0 0 0 0 1 0 0 0 0 0 0 0 0
0 0 0 -0 -0 -0 0 0 0 0 0 0 0 0 0 0 0 0 0 0 0 0 0 0 0 1 0 0 0 0 -0 -0 -0 0 0 0 0 0 0 0 0 0 0 0 0 0 0 0 0
0 0 0 0 0 0 0 0 0 0 0 0 0 0 0 0 0 0 0 0 0 0 0 0 0 1 1 0 0 0 -0 -0 -0 -0 0 0 0 0 0 0 0 0 1 0 0 0 0 0 0
0 0 0 0 0 0 0 0 0 0 0 0 0 0 0 0 0 0 0 0 0 1 0 1 2 2 2 0 0 -0 -0 -0 -0 0 0 0 0 0 0 0 0 1 0 0 0 0 0 0 0
0 0 0 0 0 0 0 0 0 0 0 0 0 0 0 0 0 1 1 0 1 1 1 1 2 2 1 0 0 -0 -0 -0 -0 0 0 0 0 0 0 0 0 0 0 0 0 0 0 0 0
0 0 0 -0 0 0 0 0 0 0 0 0 0 0 0 0 0 0 1 0 1 1 1 1 1 1 1 0 0 -0 0 0 -0 0 0 0 0 0 0 0 0 0 0 0 0 0 0 0 0
0 0 -0 -0 0 0 0 0 0 0 -0 0 0 0 0 0 0 0 0 0 0 0 0 0 1 1 1 0 0 -0 -0 -0 -0 0 0 0 0 0 0 0 0 0 0 0 0 0 0 0 0
0 -0 0 -0 -0 -0 -0 0 0 0 0 0 0 0 0 0 0 0 0 0 0 0 0 0 0 0 0 0 -0 -0 0 -0 -0 0 0 0 0 0 0 0 0 0 0 0 0 0 0 0 0
-0 0 0 -0 -0 0 0 0 -0 -0 0 0 0 0 0 0 0 0 0 0 0 0 0 0 0 0 0 0 0 0 0 -0 0 0 0 0 0 0 0 1 0 0 0 0 0 0 0 0 0
-0 0 0 0 -0 0 0 0 0 0 -0 0 0 0 0 0 0 0 0 0 0 0 0 0 0 0 0 0 0 0 0 0 0 0 0 0 0 0 1 1 0 0 0 0 0 0 0 0 0
0 0 0 0 0 -0 0 0 0 -0 0 0 0 0 0 0 0 0 0 0 0 0 0 0 0 0 0 0 0 1 0 1 1 0 0 0 0 0 1 1 1 0 1 1 0 0 0 0 0
0 0 0 0 0 0 0 0 -0 0 0 0 -0 0 0 0 0 0 0 0 0 0 0 0 0 0 0 0 0 0 0 1 1 0 0 0 0 0 0 1 1 1 1 1 1 0 0 0 0
0 -0 0 0 0 0 0 -0 0 0 -0 -0 -0 -0 -0 0 0 1 1 0 0 0 0 0 0 0 0 0 0 0 0 1 0 0 0 0 0 0 0 0 0 0 0 0 0 0 0 0 0
0 0 0 -0 0 0 0 0 0 0 0 0 0 -0 -0 0 0 1 0 0 0 0 0 0 0 0 0 0 0 0 0 0 0 0 0 0 0 0 0 0 0 0 0 0 0 0 0 0 0
0 0 0 0 0 0 0 0 0 0 0 -0 0 0 0 0 0 0 0 -0 -0 0 0 0 0 0 0 0 0 0 0 -0 -0 -0 -0 0 0 0 0 0 0 0 0 0 0 0 0 0 0
0 0 -0 0 0 0 0 0 0 0 0 0 0 0 0 0 0 0 0 0 0 0 0 0 0 0 0 0 0 0 0 -0 -0 0 0 0 0 0 0 0 0 0 0 0 0 0 0 0 0
0 0 0 0 0 0 0 0 0 0 0 0 0 0 0 0 0 0 0 0 0 0 0 0 0 0 0 0 0 0 0 0 0 0 0 0 0 0 0 0 0 0 0 0 0 0 0 0 0
0 0 0 0 0 0 0 0 0 0 0 0 0 0 0 0 0 0 0 0 0 0 0 0 0 0 0 0 0 0 0 0 0 0 0 0 0 0 0 0 0 0 0 0 0 0 0 0 0
0 0 0 0 0 0 0 0 0 0 0 0 0 0 0 0 0 0 0 0 0 0 0 0 0 0 0 0 0 0 0 0 0 0 0 0 0 0 0 0 0 0 0 0 0 0 0 0 0
0 0 0 0 0 0 0 0 0 0 0 0 0 0 0 0 0 0 0 0 0 0 0 0 0 0 0 0 0 0 0 0 0 0 0 0 0 0 0 0 0 0 0 0 0 0 0 0 0
0 0 0 0 0 0 0 0 0 0 0 0 0 0 0 0 0 0 0 0 0 0 0 0 0 0 0 0 0 0 0 0 0 0 0 0 0 0 0 0 0 0 0 0 0 0 0 0 0
0 0 0 0 0 0 0 0 0 0 0 0 0 0 0 0 0 0 0 0 0 0 0 0 0 0 0 0 0 0 0 0 0 0 0 0 0 0 0 0 0 0 0 0 0 0 0 0 0
0 0 0 0 0 0 0 0 0 0 0 0 0 0 0 0 0 0 0 0 0 0 0 0 0 0 0 0 0 0 0 0 0 0 0 0 0 0 0 0 0 0 0 0 0 0 0 0 0
Wind_Speed_500mb
16 10 5 4 2 1 4 5 5 3 2 4 21 8 4 3 2 6 9 35 34 32 33 29 27 24 19 16 14 13 12 13 15 18 21 22 23 23 22 22 24 26 28 30 31 32 32 30 27
15 9 7 3 4 10 8 2 6 6 9 17 17 10 4 3 3 4 36 30 33 31 30 29 26 22 16 13 12 11 11 12 14 17 20 20 19 18 19 18 19 19 21 23 25 26 27 28 27
15 13 5 5 3 6 7 2 6 10 13 7 7 6 4 5 2 29 30 25 31 30 26 26 22 20 16 12 11 11 12 13 13 14 18 19 19 18 16 15 15 14 13 14 16 19 22 25 29
21 9 6 5 4 1 5 7 9 18 6 5 11 10 7 8 21 26 27 22 27 25 23 21 18 16 14 11 11 11 11 11 13 15 19 22 21 18 16 13 11 8 8 7 6 10 16 20 26
17 8 6 6 4 7 9 8 8 10 9 8 4 8 13 13 23 27 25 23 24 22 18 16 15 14 13 13 12 12 12 13 16 17 18 21 21 18 15 11 7 3 1 6 9 11 15 20 25
4 3 7 11 10 7 10 6 11 9 7 5 6 17 8 15 28 24 21 22 22 18 14 14 14 14 14 15 15 15 14 15 17 18 20 22 22 22 23 17 12 9 7 11 13 14 15 19 26
4 4 4 7 8 12 4 8 8 4 6 5 12 12 8 17 25 23 20 23 19 16 14 14 14 15 18 21 23 23 22 20 20 20 21 22 25 24 22 21 19 18 16 19 20 20 19 23 29
4 3 2 7 6 9 2 14 9 4 4 4 12 2 6 22 31 30 27 21 21 18 13 11 9 17 21 25 26 28 30 28 27 23 22 21 26 29 28 28 24 23 24 28 27 25 26 30 35
7 3 6 9 6 5 8 12 7 5 6 8 9 2 6 33 35 33 29 22 23 22 12 6 17 21 30 33 33 33 31 32 34 31 24 22 26 32 34 34 32 30 33 36 33 29 30 27 34
4 4 11 7 11 7 16 16 14 8 11 14 4 4 24 32 35 32 24 24 22 22 12 8 24 26 37 40 39 37 37 34 38 37 36 26 28 32 37 37 38 39 41 42 33 31 27 30 33
5 8 7 6 14 10 17 20 16 18 11 16 17 18 33 33 33 28 24 22 22 19 18 29 27 39 49 48 38 54 47 39 41 40 42 39 36 35 36 41 28 31 31 36 30 30 28 32 31
7 18 17 8 5 14 12 16 11 23 10 16 10 22 32 32 27 21 18 15 13 15 23 32 48 58 54 56 54 46 41 39 45 45 44 47 47 36 29 23 22 21 27 30 29 30 28 29 27
8 10 7 10 7 7 10 8 7 10 17 13 14 30 30 29 26 20 15 7 7 12 21 35 51 34 27 33 28 25 30 42 45 48 42 46 45 36 26 26 25 28 30 29 32 31 32 32 35
5 4 18 14 20 13 6 3 5 25 18 12 29 33 30 24 19 12 15 11 8 19 37 46 36 12 19 46 16 23 40 40 45 38 37 38 36 35 30 28 25 33 38 40 40 39 38 40 38
4 1 13 34 8 10 9 4 20 37 13 30 29 31 27 19 18 12 12 6 17 24 27 36 28 16 17 29 10 26 42 52 45 37 30 30 35 36 29 27 33 38 44 44 43 45 45 48 45
6 7 9 24 14 8 6 14 41 34 27 32 25 23 21 14 14 7 5 13 16 21 26 32 27 15 21 23 20 32 33 35 33 28 27 31 34 31 32 35 38 43 52 53 49 48 51 53 48
15 15 15 8 27 5 10 11 37 28 39 32 19 16 15 10 8 6 11 12 11 25 27 22 20 17 20 21 20 19 25 29 29 27 32 35 35 36 39 41 47 50 52 51 51 52 55 50 43
10 12 12 10 14 35 34 28 34 38 38 24 14 9 12 6 2 8 15 13 23 34 35 24 14 13 16 29 29 30 29 28 28 32 36 41 41 45 45 46 50 51 50 50 55 54 54 53 49
20 24 27 17 7 25 27 34 31 31 33 12 13 13 3 4 11 22 20 21 25 29 38 38 27 26 34 43 36 34 35 31 33 35 38 44 46 47 46 43 39 39 42 43 43 43 41 28 40
27 30 15 21 30 29 32 32 24 38 28 25 17 16 16 17 22 27 33 27 25 36 36 34 36 38 47 45 35 42 35 27 28 31 35 39 45 48 48 41 39 37 35 36 37 36 38 45 40
13 14 18 33 19 16 18 27 26 24 34 34 32 22 20 21 24 22 30 29 29 38 44 44 44 43 42 44 40 38 34 32 33 35 37 36 35 34 34 35 37 39 37 32 35 35 35 34 31
3 7 16 31 19 9 11 9 16 23 26 34 31 30 24 22 25 25 30 34 41 45 42 43 46 48 50 48 43 42 41 41 41 40 38 37 38 39 41 42 41 37 34 38 33 30 38 37 36
4 8 25 17 17 9 14 8 8 10 17 23 33 30 27 23 22 26 31 34 36 39 42 47 51 53 52 49 49 51 51 48 46 45 45 45 47 49 49 48 47 46 44 43 42 38 32 34 31
16 16 17 8 2 3 9 3 6 4 7 10 21 28 27 24 27 30 34 33 38 43 49 47 42 44 40 44 46 47 50 51 51 53 55 54 51 46 44 41 39 39 36 34 32 32 29 30 32
5 4 5 7 3 2 5 4 7 4 7 9 14 17 16 19 21 25 32 37 39 37 36 33 43 39 39 39 41 45 46 44 45 41 37 35 34 32 30 32 31 27 24 24 28 29 24 23 25
8 2 1 5 5 5 1 4 7 3 5 10 13 13 14 15 20 28 32 30 28 33 28 33 36 33 34 39 43 45 45 41 34 30 29 29 30 30 29 29 28 26 27 29 30 30 30 29 30
5 3 4 10 2 6 2 3 6 5 9 12 14 17 19 16 19 25 24 26 27 27 21 28 32 33 38 42 46 49 43 34 30 31 31 32 34 34 32 32 31 30 30 30 30 27 28 29 29
6 12 1 3 3 4 2 6 5 16 18 8 9 8 7 7 15 23 22 22 24 25 23 28 33 37 42 46 51 46 38 36 33 33 33 35 35 34 33 32 33 33 34 36 32 27 33 35 36
1 3 9 6 4 3 2 1 2 20 16 8 5 1 6 3 14 21 20 24 26 27 27 29 33 38 43 49 51 40 36 36 37 34 35 36 36 35 34 35 36 39 42 36 36 33 30 31 30
2 4 2 4 3 3 4 2 3 13 15 9 6 5 7 4 12 19 21 23 26 27 28 29 33 39 45 48 45 39 35 36 38 37 38 37 39 35 34 39 38 43 39 34 31 30 28 31 30
Wind_Direction_500mb
31 58 107 354 174 5 72 38 282 276 101 94 142 148 205 91 337 356 167 153 161 163 158 161 158 155 156 150 143 143 146 147 148 146 141 133 123 114 101 86 86 77 67 62 56 52 49 43 32
26 26 351 318 36 40 68 298 351 24 33 123 126 99 136 92 171 115 139 150 162 166 162 166 159 157 157 154 156 163 168 169 168 165 159 150 137 124 114 103 98 90 77 64 56 52 48 36 24
3 10 350 42 75 10 356 21 72 96 97 124 113 54 46 41 126 136 145 150 163 168 168 167 162 165 167 168 175 189 190 188 186 182 178 168 157 148 137 121 113 104 91 72 53 42 42 36 21
350 8 34 3 13 279 286 359 114 126 96 71 109 80 54 72 120 135 137 158 161 167 174 172 172 178 182 188 197 206 211 208 203 199 195 190 183 170 163 157 146 127 93 68 31 17 16 15 8
353 2 14 1 319 281 267 302 172 120 104 91 42 97 100 96 132 135 137 141 159 163 170 180 187 197 205 213 221 229 233 226 223 220 219 214 203 195 190 187 189 180 334 330 335 333 342 349 353
23 37 4 344 326 297 290 270 173 110 82 82 97 123 130 144 148 141 134 136 147 157 168 191 203 217 231 242 250 253 253 251 246 241 240 234 222 218 215 216 227 245 269 285 297 304 319 331 336
42 14 346 293 301 304 334 114 175 138 67 59 138 139 160 168 154 139 140 146 148 173 197 206 215 233 243 252 262 266 267 264 259 257 256 248 238 230 226 230 237 254 265 276 287 301 312 322 328
121 112 186 257 315 288 15 132 166 172 53 109 162 97 159 170 160 155 154 154 166 190 206 239 260 252 258 255 250 261 275 275 276 274 271 266 257 248 244 244 249 255 266 278 290 298 305 312 323
151 189 242 259 190 257 159 169 137 189 143 180 196 286 143 166 167 168 172 172 198 199 184 264 267 270 261 256 255 254 266 280 278 272 272 279 273 264 257 255 254 257 264 275 284 289 288 300 322
202 242 241 226 165 213 185 181 169 181 201 211 192 242 156 169 174 180 180 194 214 222 198 256 290 288 277 267 268 271 265 271 277 278 277 284 284 271 267 263 270 266 265 270 281 282 292 310 324
165 248 301 313 226 223 204 180 178 214 227 233 207 159 162 172 180 187 194 210 235 254 259 250 280 282 267 266 271 277 275 269 276 279 283 284 298 298 284 281 271 262 271 274 281 282 288 300 311
254 256 258 316 152 187 194 157 188 212 235 21 181 176 166 174 182 191 210 229 264 297 311 284 298 300 303 288 254 232 251 274 284 283 281 281 288 299 298 282 273 258 274 271 277 278 285 300 309
228 293 31 332 178 195 156 207 206 324 276 263 174 168 166 175 191 208 227 258 320 356 318 323 330 323 313 335 261 219 268 291 286 275 272 279 285 298 299 282 276 278 283 272 273 275 286 295 303
260 273 45 33 108 114 203 186 132 12 18 128 144 154 167 181 185 168 113 99 37 327 327 335 342 2 315 337 306 234 269 292 296 283 288 287 287 296 298 295 288 292 292 281 280 278 283 284 291
310 22 74 37 70 70 321 218 42 2 99 110 131 142 149 152 145 133 125 360 327 328 339 349 1 15 342 348 225 265 299 289 295 297 289 293 291 290 299 298 296 294 293 290 287 279 284 285 285
60 60 78 28 3 32 259 42 15 18 97 94 105 115 144 152 152 178 72 350 10 351 358 7 18 11 337 338 310 295 302 298 298 294 289 292 279 282 296 297 299 299 298 297 291 280 283 286 286
34 76 70 57 16 25 47 36 14 70 82 84 101 134 150 163 143 112 41 52 1 8 10 9 14 9 355 345 334 314 314 313 303 295 295 297 290 292 295 297 301 301 299 296 295 293 291 286 293
93 100 59 84 49 76 74 68 58 69 91 113 119 169 201 165 296 359 29 44 36 20 12 4 8 15 350 343 330 314 323 324 303 302 300 304 300 296 298 296 299 301 299 297 295 294 295 295 293
105 120 123 113 73 63 68 56 33 30 63 65 29 76 225 15 359 25 21 39 36 13 7 4 354 343 349 349 340 341 327 315 309 308 301 302 303 301 305 309 307 304 300 300 299 302 303 303 303
111 124 118 90 97 93 86 67 56 36 27 34 41 53 58 45 49 47 46 39 15 3 5 1 359 351 344 347 341 340 336 327 317 316 317 314 311 312 313 312 309 307 307 307 307 308 308 304 304
85 140 166 142 124 107 88 60 45 44 44 50 47 46 43 47 34 43 33 25 18 14 9 2 355 352 352 345 343 341 343 340 337 332 333 336 335 330 325 320 316 311 307 306 304 307 306 301 299
68 315 177 147 168 124 345 113 46 18 48 47 51 46 46 39 30 25 16 20 18 14 17 19 15 5 5 4 6 8 8 4 359 354 347 340 333 327 323 320 318 315 312 309 310 308 307 307 305
25 109 141 120 95 157 38 116 102 25 40 32 32 31 37 36 30 30 27 23 27 29 15 4 359 358 5 7 6 2 1 357 350 341 335 329 327 327 326 325 324 323 322 320 318 314 308 305 301
140 96 75 68 94 107 11 291 132 20 327 32 43 40 37 42 40 48 52 41 23 11 2 0 357 355 357 358 359 360 354 345 338 333 332 335 337 337 336 338 339 338 335 334 334 324 311 295 297
49 163 170 203 144 51 331 231 83 339 15 12 31 47 40 46 55 51 35 16 3 3 7 7 8 17 15 9 1 355 347 339 332 336 344 345 345 348 354 354 354 357 2 349 341 344 344 335 319
56 326 11 295 201 166 84 202 107 347 83 81 67 61 65 61 53 36 16 11 13 11 11 10 16 14 8 1 357 352 349 350 356 1 5 5 7 4 359 352 347 340 333 329 329 328 326 315 313
111 61 70 107 42 225 43 161 202 191 155 106 73 61 59 58 49 33 16 13 9 5 3 7 9 5 360 360 358 356 357 3 10 12 11 9 6 1 355 352 352 348 342 335 333 326 314 312 311
33 127 219 104 171 246 178 268 231 187 189 124 106 70 79 63 47 30 13 3 357 354 355 360 0 359 359 0 360 360 10 20 18 13 11 8 7 5 2 5 5 359 351 343 332 318 316 307 304
92 118 68 94 343 283 280 228 201 193 167 151 147 336 168 62 34 21 7 352 347 348 349 354 356 356 359 1 1 9 12 11 12 9 8 7 4 6 10 11 359 351 348 349 346 329 327 339 339
22 81 74 315 160 54 335 62 165 194 155 149 131 125 159 64 24 13 5 355 347 347 352 353 354 358 359 1 6 12 13 15 14 15 11 8 8 4 6 359 351 350 353 349 360 14 10 356 356
Wind_Speed_850mb
16 10 5 4 2 1 4 5 5 3 2 4 21 8 4 3 2 6 9 35 34 32 33 29 27 24 19 16 14 13 12 13 15 18 21 22 23 23 22 22 24 26 28 30 31 32 32 30 27
15 9 7 3 4 10 8 2 6 6 9 17 17 10 4 3 3 4 36 30 33 31 30 29 26 22 16 13 12 11 11 12 14 17 20 20 19 18 19 18 19 19 21 23 25 26 27 28 27
15 13 5 5 3 6 7 2 6 10 13 7 7 6 4 5 2 29 30 25 31 30 26 26 22 20 16 12 11 11 12 13 13 14 18 19 19 18 16 15 15 14 13 14 16 19 22 25 29
21 9 6 5 4 1 5 7 9 18 6 5 11 10 7 8 21 26 27 22 27 25 23 21 18 16 14 11 11 11 11 11 13 15 19 22 21 18 16 13 11 8 8 7 6 10 16 20 26
17 8 6 6 4 7 9 8 8 10 9 8 4 8 13 13 23 27 25 23 24 22 18 16 15 14 13 13 12 12 12 13 16 17 18 21 21 18 15 11 7 3 1 6 9 11 15 20 25
4 3 7 11 10 7 10 6 11 9 7 5 6 17 8 15 28 24 21 22 22 18 14 14 14 14 14 15 15 15 14 15 17 18 20 22 22 22 23 17 12 9 7 11 13 14 15 19 26
4 4 4 7 8 12 4 8 8 4 6 5 12 12 8 17 25 23 20 23 19 16 14 14 14 15 18 21 23 23 22 20 20 20 21 22 25 24 22 21 19 18 16 19 20 20 19 23 29
4 3 2 7 6 9 2 14 9 4 4 4 12 2 6 22 31 30 27 21 21 18 13 11 9 17 21 25 26 28 30 28 27 23 22 21 26 29 28 28 24 23 24 28 27 25 26 30 35
7 3 6 9 6 5 8 12 7 5 6 8 9 2 6 33 35 33 29 22 23 22 12 6 17 21 30 33 33 33 31 32 34 31 24 22 26 32 34 34 32 30 33 36 33 29 30 27 34
4 4 11 7 11 7 16 16 14 8 11 14 4 4 24 32 35 32 24 24 22 22 12 8 24 26 37 40 39 37 37 34 38 37 36 26 28 32 37 37 38 39 41 42 33 31 27 30 33
5 8 7 6 14 10 17 20 16 18 11 16 17 18 33 33 33 28 24 22 22 19 18 29 27 39 49 48 38 54 47 39 41 40 42 39 36 35 36 41 28 31 31 36 30 30 28 32 31
7 18 17 8 5 14 12 16 11 23 10 16 10 22 32 32 27 21 18 15 13 15 23 32 48 58 54 56 54 46 41 39 45 45 44 47 47 36 29 23 22 21 27 30 29 30 28 29 27
8 10 7 10 7 7 10 8 7 10 17 13 14 30 30 29 26 20 15 7 7 12 21 35 51 34 27 33 28 25 30 42 45 48 42 46 45 36 26 26 25 28 30 29 32 31 32 32 35
5 4 18 14 20 13 6 3 5 25 18 12 29 33 30 24 19 12 15 11 8 19 37 46 36 12 19 46 16 23 40 40 45 38 37 38 36 35 30 28 25 33 38 40 40 39 38 40 38
4 1 13 34 8 10 9 4 20 37 13 30 29 31 27 19 18 12 12 6 17 24 27 36 28 16 17 29 10 26 42 52 45 37 30 30 35 36 29 27 33 38 44 44 43 45 45 48 45
6 7 9 24 14 8 6 14 41 34 27 32 25 23 21 14 14 7 5 13 16 21 26 32 27 15 21 23 20 32 33 35 33 28 27 31 34 31 32 35 38 43 52 53 49 48 51 53 48
15 15 15 8 27 5 10 11 37 28 39 32 19 16 15 10 8 6 11 12 11 25 27 22 20 17 20 21 20 19 25 29 29 27 32 35 35 36 39 41 47 50 52 51 51 52 55 50 43
10 12 12 10 14 35 34 28 34 38 38 24 14 9 12 6 2 8 15 13 23 34 35 24 14 13 16 29 29 30 29 28 28 32 36 41 41 45 45 46 50 51 50 50 55 54 54 53 49
20 24 27 17 7 25 27 34 31 31 33 12 13 13 3 4 11 22 20 21 25 29 38 38 27 26 34 43 36 34 35 31 33 35 38 44 46 47 46 43 39 39 42 43 43 43 41 28 40
27 30 15 21 30 29 32 32 24 38 28 25 17 16 16 17 22 27 33 27 25 36 36 34 36 38 47 45 35 42 35 27 28 31 35 39 45 48 48 41 39 37 35 36 37 36 38 45 40
13 14 18 33 19 16 18 27 26 24 34 34 32 22 20 21 24 22 30 29 29 38 44 44 44 43 42 44 40 38 34 32 33 35 37 36 35 34 34 35 37 39 37 32 35 35 35 34 31
3 7 16 31 19 9 11 9 16 23 26 34 31 30 24 22 25 25 30 34 41 45 42 43 46 48 50 48 43 42 41 41 41 40 38 37 38 39 41 42 41 37 34 38 33 30 38 37 36
4 8 25 17 17 9 14 8 8 10 17 23 33 30 27 23 22 26 31 34 36 39 42 47 51 53 52 49 49 51 51 48 46 45 45 45 47 49 49 48 47 46 44 43 42 38 32 34 31
16 16 17 8 2 3 9 3 6 4 7 10 21 28 27 24 27 30 34 33 38 43 49 47 42 44 40 44 46 47 50 51 51 53 55 54 51 46 44 41 39 39 36 34 32 32 29 30 32
5 4 5 7 3 2 5 4 7 4 7 9 14 17 16 19 21 25 32 37 39 37 36 33 43 39 39 39 41 45 46 44 45 41 37 35 34 32 30 32 31 27 24 24 28 29 24 23 25
8 2 1 5 5 5 1 4 7 3 5 10 13 13 14 15 20 28 32 30 28 33 28 33 36 33 34 39 43 45 45 41 34 30 29 29 30 30 29 29 28 26 27 29 30 30 30 29 30
5 3 4 10 2 6 2 3 6 5 9 12 14 17 19 16 19 25 24 26 27 27 21 28 32 33 38 42 46 49 43 34 30 31 31 32 34 34 32 32 31 30 30 30 30 27 28 29 29
6 12 1 3 3 4 2 6 5 16 18 8 9 8 7 7 15 23 22 22 24 25 23 28 33 37 42 46 51 46 38 36 33 33 33 35 35 34 33 32 33 33 34 36 32 27 33 35 36
1 3 9 6 4 3 2 1 2 20 16 8 5 1 6 3 14 21 20 24 26 27 27 29 33 38 43 49 51 40 36 36 37 34 35 36 36 35 34 35 36 39 42 36 36 33 30 31 30
2 4 2 4 3 3 4 2 3 13 15 9 6 5 7 4 12 19 21 23 26 27 28 29 33 39 45 48 45 39 35 36 38 37 38 37 39 35 34 39 38 43 39 34 31 30 28 31 30
Wind_Direction_850mb
31 58 107 354 174 5 72 38 282 276 101 94 142 148 205 91 337 356 167 153 161 163 158 161 158 155 156 150 143 143 146 147 148 146 141 133 123 114 101 86 86 77 67 62 56 52 49 43 32
26 26 351 318 36 40 68 298 351 24 33 123 126 99 136 92 171 115 139 150 162 166 162 166 159 157 157 154 156 163 168 169 168 165 159 150 137 124 114 103 98 90 77 64 56 52 48 36 24
3 10 350 42 75 10 356 21 72 96 97 124 113 54 46 41 126 136 145 150 163 168 168 167 162 165 167 168 175 189 190 188 186 182 178 168 157 148 137 121 113 104 91 72 53 42 42 36 21
350 8 34 3 13 279 286 359 114 126 96 71 109 80 54 72 120 135 137 158 161 167 174 172 172 178 182 188 197 206 211 208 203 199 195 190 183 170 163 157 146 127 93 68 31 17 16 15 8
353 2 14 1 319 281 267 302 172 120 104 91 42 97 100 96 132 135 137 141 159 163 170 180 187 197 205 213 221 229 233 226 223 220 219 214 203 195 190 187 189 180 334 330 335 333 342 349 353
23 37 4 344 326 297 290 270 173 110 82 82 97 123 130 144 148 141 134 136 147 157 168 191 203 217 231 242 250 253 253 251 246 241 240 234 222 218 215 216 227 245 269 285 297 304 319 331 336
42 14 346 293 301 304 334 114 175 138 67 59 138 139 160 168 154 139 140 146 148 173 197 206 215 233 243 252 262 266 267 264 259 257 256 248 238 230 226 230 237 254 265 276 287 301 312 322 328
121 112 186 257 315 288 15 132 166 172 53 109 162 97 159 170 160 155 154 154 166 190 206 239 260 252 258 255 250 261 275 275 276 274 271 266 257 248 244 244 249 255 266 278 290 298 305 312 323
151 189 242 259 190 257 159 169 137 189 143 180 196 286 143 166 167 168 172 172 198 199 184 264 267 270 261 256 255 254 266 280 278 272 272 279 273 264 257 255 254 257 264 275 284 289 288 300 322
202 242 241 226 165 213 185 181 169 181 201 211 192 242 156 169 174 180 180 194 214 222 198 256 290 288 277 267 268 271 265 271 277 278 277 284 284 271 267 263 270 266 265 270 281 282 292 310 324
165 248 301 313 226 223 204 180 178 214 227 233 207 159 162 172 180 187 194 210 235 254 259 250 280 282 267 266 271 277 275 269 276 279 283 284 298 298 284 281 271 262 271 274 281 282 288 300 311
254 256 258 316 152 187 194 157 188 212 235 21 181 176 166 174 182 191 210 229 264 297 311 284 298 300 303 288 254 232 251 274 284 283 281 281 288 299 298 282 273 258 274 271 277 278 285 300 309
228 293 31 332 178 195 156 207 206 324 276 263 174 168 166 175 191 208 227 258 320 356 318 323 330 323 313 335 261 219 268 291 286 275 272 279 285 298 299 282 276 278 283 272 273 275 286 295 303
260 273 45 33 108 114 203 186 132 12 18 128 144 154 167 181 185 168 113 99 37 327 327 335 342 2 315 337 306 234 269 292 296 283 288 287 287 296 298 295 288 292 292 281 280 278 283 284 291
310 22 74 37 70 70 321 218 42 2 99 110 131 142 149 152 145 133 125 360 327 328 339 349 1 15 342 348 225 265 299 289 295 297 289 293 291 290 299 298 296 294 293 290 287 279 284 285 285
60 60 78 28 3 32 259 42 15 18 97 94 105 115 144 152 152 178 72 350 10 351 358 7 18 11 337 338 310 295 302 298 298 294 289 292 279 282 296 297 299 299 298 297 291 280 283 286 286
34 76 70 57 16 25 47 36 14 70 82 84 101 134 150 163 143 112 41 52 1 8 10 9 14 9 355 345 334 314 314 313 303 295 295 297 290 292 295 297 301 301 299 296 295 293 291 286 293
93 100 59 84 49 76 74 68 58 69 91 113 119 169 201 165 296 359 29 44 36 20 12 4 8 15 350 343 330 314 323 324 303 302 300 304 300 296 298 296 299 301 299 297 295 294 295 295 293
105 120 123 113 73 63 68 56 33 30 63 65 29 76 225 15 359 25 21 39 36 13 7 4 354 343 349 349 340 341 327 315 309 308 301 302 303 301 305 309 307 304 300 300 299 302 303 303 303
111 124 118 90 97 93 86 67 56 36 27 34 41 53 58 45 49 47 46 39 15 3 5 1 359 351 344 347 341 340 336 327 317 316 317 314 311 312 313 312 309 307 307 307 307 308 308 304 304
85 140 166 142 124 107 88 60 45 44 44 50 47 46 43 47 34 43 33 25 18 14 9 2 355 352 352 345 343 341 343 340 337 332 333 336 335 330 325 320 316 311 307 306 304 307 306 301 299
68 315 177 147 168 124 345 113 46 18 48 47 51 46 46 39 30 25 16 20 18 14 17 19 15 5 5 4 6 8 8 4 359 354 347 340 333 327 323 320 318 315 312 309 310 308 307 307 305
25 109 141 120 95 157 38 116 102 25 40 32 32 31 37 36 30 30 27 23 27 29 15 4 359 358 5 7 6 2 1 357 350 341 335 329 327 327 326 325 324 323 322 320 318 314 308 305 301
140 96 75 68 94 107 11 291 132 20 327 32 43 40 37 42 40 48 52 41 23 11 2 0 357 355 357 358 359 360 354 345 338 333 332 335 337 337 336 338 339 338 335 334 334 324 311 295 297
49 163 170 203 144 51 331 231 83 339 15 12 31 47 40 46 55 51 35 16 3 3 7 7 8 17 15 9 1 355 347 339 332 336 344 345 345 348 354 354 354 357 2 349 341 344 344 335 319
56 326 11 295 201 166 84 202 107 347 83 81 67 61 65 61 53 36 16 11 13 11 11 10 16 14 8 1 357 352 349 350 356 1 5 5 7 4 359 352 347 340 333 329 329 328 326 315 313
111 61 70 107 42 225 43 161 202 191 155 106 73 61 59 58 49 33 16 13 9 5 3 7 9 5 360 360 358 356 357 3 10 12 11 9 6 1 355 352 352 348 342 335 333 326 314 312 311
33 127 219 104 171 246 178 268 231 187 189 124 106 70 79 63 47 30 13 3 357 354 355 360 0 359 359 0 360 360 10 20 18 13 11 8 7 5 2 5 5 359 351 343 332 318 316 307 304
92 118 68 94 343 283 280 228 201 193 167 151 147 336 168 62 34 21 7 352 347 348 349 354 356 356 359 1 1 9 12 11 12 9 8 7 4 6 10 11 359 351 348 349 346 329 327 339 339
22 81 74 315 160 54 335 62 165 194 155 149 131 125 159 64 24 13 5 355 347 347 352 353 354 358 359 1 6 12 13 15 14 15 11 8 8 4 6 359 351 350 353 349 360 14 10 356 356